Theta_e
310 310 310 311 310 309 309 308 308 308 308 308 306 307 309 309 305 303 309 313 310 311 312 314 320 323 326 330 335 339 343 347 348 347 347 347 349 351 352 354 354 353 354 354 354 355 356 357 357 358 359 360 361 362 362 360 360 358 359 359 358 357 355 355 356 356 359 358 360 361 361 360 358 357 355 355 356 357 358 358 357 357 356 355 355 354 355
310 310 310 311 309 308 308 308 309 309 308 307 308 308 310 310 310 310 309 316 312 313 313 318 324 322 325 332 341 344 344 343 346 345 345 346 348 349 348 351 353 354 354 355 356 357 357 356 357 357 357 358 359 358 357 355 357 359 360 358 356 356 356 355 357 360 358 357 359 360 358 356 357 358 357 356 356 357 358 359 358 358 358 357 356 354 354
307 309 310 310 309 308 307 309 309 309 309 309 309 309 310 311 309 310 310 311 312 321 328 331 329 331 332 340 337 336 342 344 344 343 344 348 349 349 352 352 352 353 354 356 356 357 357 357 358 357 356 355 355 356 356 357 358 360 359 357 356 355 357 357 357 358 357 357 358 356 356 356 358 357 356 356 357 357 358 358 357 358 357 356 355 356 355
305 309 308 309 309 309 308 308 309 308 308 306 307 307 310 309 308 310 310 310 310 328 332 331 334 333 333 332 334 339 342 343 344 343 345 347 348 349 351 352 353 353 354 355 356 357 358 358 357 356 355 356 355 356 357 357 357 358 357 357 356 356 354 357 359 358 357 357 361 361 361 359 358 358 357 357 357 357 357 356 356 357 356 356 355 355 355
303 308 309 308 308 307 304 307 312 315 313 310 310 311 312 311 312 309 307 308 322 325 327 329 329 331 332 331 334 338 340 345 344 344 344 344 344 347 350 351 352 352 354 356 357 357 358 358 356 355 357 355 355 355 355 356 357 356 355 355 356 357 357 359 359 360 361 360 359 357 355 352 353 358 355 355 356 356 355 354 355 355 356 356 354 353 353
304 307 308 309 304 297 301 316 318 318 315 313 308 308 309 316 315 312 319 322 325 327 324 324 328 329 333 335 340 341 344 345 343 343 343 343 343 345 347 350 353 354 355 355 357 358 358 358 358 358 357 356 356 357 357 358 357 356 356 355 357 357 358 359 359 356 352 348 349 347 349 351 354 355 354 356 357 357 356 356 354 354 354 355 354 354 354
303 307 308 304 299 299 314 321 319 320 321 321 316 319 321 322 322 319 317 319 326 329 326 325 332 335 337 341 343 343 344 347 345 343 343 343 344 345 347 350 352 355 356 356 357 357 358 357 356 356 356 357 357 357 357 357 357 356 356 357 358 359 358 358 358 356 351 347 347 346 346 348 351 354 355 355 356 357 357 356 355 355 355 354 354 355 354
308 305 304 295 299 314 319 319 322 324 322 320 319 318 322 325 325 326 324 328 330 332 329 328 333 336 336 339 342 347 350 344 341 339 341 344 344 345 348 350 353 354 354 355 356 357 359 358 356 356 355 356 355 354 357 355 355 356 357 358 357 357 356 354 355 356 351 350 349 350 349 350 352 353 353 354 355 356 355 356 356 356 356 355 355 355 355
302 303 307 304 310 310 315 317 319 321 318 319 320 313 317 326 328 329 328 329 331 332 331 330 332 336 337 337 338 343 347 342 337 337 340 342 343 345 348 350 351 353 355 356 358 358 358 359 357 355 355 355 355 354 355 355 355 355 356 353 352 355 351 352 352 355 354 352 352 353 353 353 353 353 353 355 356 356 354 355 355 355 356 355 356 356 356
309 304 301 301 304 302 310 319 324 327 327 325 325 322 317 328 329 330 329 329 329 331 332 331 335 336 332 326 331 340 344 341 336 338 341 343 346 346 348 351 352 353 354 355 356 355 357 358 358 357 358 356 355 354 354 354 354 354 354 350 352 352 353 354 353 354 356 356 355 354 354 353 353 354 356 356 356 356 354 354 354 354 354 354 356 356 355
307 304 301 301 300 305 316 318 323 326 327 326 326 321 315 326 329 331 330 329 330 330 330 331 334 333 325 324 331 341 340 339 339 340 341 343 345 348 350 350 351 351 353 354 354 357 357 357 358 358 357 356 354 354 354 354 355 354 354 356 356 356 356 357 357 357 356 356 356 355 354 353 354 354 354 354 355 356 355 355 354 355 353 353 353 354 354
307 306 301 300 305 307 317 322 324 326 326 326 323 309 310 326 328 331 331 329 330 330 331 335 333 331 319 324 331 339 339 338 339 340 340 343 344 345 347 350 353 356 358 356 355 355 357 359 360 358 358 356 356 355 354 355 355 356 356 355 356 356 356 357 356 355 355 355 355 354 354 353 354 354 354 354 353 353 353 352 352 352 352 354 354 353 354
305 305 303 304 307 319 320 322 325 326 327 321 309 302 319 327 329 331 331 331 332 331 331 335 330 334 332 334 345 342 340 339 340 342 345 345 345 346 349 352 355 354 354 354 355 356 357 358 358 358 356 356 355 356 355 355 354 356 357 356 355 354 355 354 353 353 355 355 355 356 356 354 354 354 354 354 353 353 351 352 351 351 351 351 351 350 351
305 306 303 303 311 319 322 324 326 326 323 311 312 322 329 329 329 331 332 332 333 332 333 335 336 335 336 336 347 344 341 341 344 345 345 345 346 350 354 354 352 352 353 356 357 355 357 358 357 358 357 356 356 355 353 352 355 358 358 356 356 355 355 355 354 355 355 355 355 354 355 354 353 352 353 354 353 352 351 350 350 348 348 346 347 347 350
306 307 303 300 295 317 324 323 325 325 319 316 324 326 329 331 331 332 333 333 334 333 334 333 333 333 336 338 344 343 345 347 346 346 347 348 348 349 351 352 353 353 354 354 354 356 355 355 355 355 357 355 354 354 353 356 357 358 358 357 358 356 355 354 354 354 354 354 354 353 352 353 352 351 352 351 351 350 348 348 347 347 347 349 349 348 347
303 304 300 299 313 320 324 322 316 321 323 326 328 328 327 332 332 333 333 335 335 334 334 334 336 334 334 337 343 344 345 346 349 350 350 350 350 348 349 350 349 351 353 356 357 358 356 357 358 358 358 356 356 354 355 358 358 358 357 356 357 355 355 353 353 352 353 351 350 351 351 351 351 349 348 349 350 350 350 349 347 347 346 347 347 345 345
310 308 310 316 323 323 325 324 324 325 329 330 330 330 330 330 332 335 334 334 336 336 335 335 336 335 334 338 341 343 343 345 347 348 347 346 346 346 347 347 351 352 354 356 356 356 357 358 359 360 359 357 355 355 357 359 359 358 356 354 353 353 352 351 351 349 349 349 348 349 349 348 348 347 348 349 347 349 349 347 346 345 344 344 344 344 344
318 318 319 321 322 323 323 326 327 326 328 331 331 331 330 332 333 336 335 336 337 336 336 334 336 338 340 337 339 341 344 346 347 348 347 346 347 347 350 352 354 358 358 358 357 355 357 359 358 360 357 355 355 356 358 360 359 357 356 355 354 353 352 351 348 348 347 346 347 349 349 348 348 347 347 346 345 346 344 344 344 344 342 341 341 343 343
309 303 320 319 318 322 324 325 327 328 328 329 331 331 332 334 335 336 337 338 338 336 337 336 336 338 340 340 344 347 349 351 350 348 348 347 347 348 350 357 357 355 352 350 350 352 352 354 355 355 356 353 356 357 358 355 356 358 357 355 354 352 351 349 349 349 348 345 345 345 347 346 345 346 347 347 346 346 346 343 343 342 343 343 341 339 340
312 314 320 320 322 322 324 326 324 325 326 328 329 331 334 336 336 337 337 338 338 336 335 336 336 335 337 338 343 346 349 350 351 350 349 349 348 352 356 356 353 351 349 348 348 350 352 353 353 352 353 352 353 353 351 351 354 355 354 353 350 349 346 347 348 347 347 343 345 344 345 346 343 343 344 345 344 346 345 345 344 343 343 342 340 340 338
317 316 319 320 323 324 325 326 327 328 328 327 329 332 334 335 336 337 338 339 338 337 336 339 338 336 337 339 342 342 347 351 351 351 352 355 356 355 353 354 352 351 350 350 353 352 352 354 355 355 354 352 352 353 353 355 356 353 351 351 350 346 346 346 347 348 345 346 344 344 345 348 345 346 345 344 344 346 346 344 342 340 341 340 340 341 340
311 311 313 318 314 313 320 324 326 328 329 329 329 331 332 333 334 336 336 337 339 340 340 341 338 337 339 340 344 343 348 351 353 355 356 355 353 354 354 354 354 354 354 354 354 353 354 355 354 355 356 355 355 353 355 356 356 354 353 351 350 347 347 346 346 345 344 344 346 345 344 343 345 342 323 315 326 342 342 325 312 307 310 334 332 338 339
307 313 316 320 321 321 323 324 327 329 329 330 330 329 330 332 335 336 336 336 338 341 344 343 342 340 341 344 346 347 349 352 354 356 355 354 354 353 354 354 354 354 355 356 354 354 353 354 354 354 354 354 356 356 358 357 356 357 356 352 350 349 349 349 346 346 345 345 347 349 348 344 345 345 344 329 302 304 314 323 311 301 299 302 306 313 329
317 317 319 322 321 320 322 325 328 329 331 330 329 332 333 333 335 336 336 336 336 339 345 344 345 345 344 345 346 348 349 351 354 354 355 354 353 352 353 354 355 355 355 354 354 353 354 353 353 353 352 354 356 354 356 357 358 358 356 353 350 349 349 348 350 350 348 349 348 347 347 347 348 344 343 344 345 305 300 312 306 298 299 298 298 303 306
317 322 322 323 325 325 326 328 330 331 330 329 328 332 332 332 335 337 337 337 338 340 341 341 343 345 346 347 347 348 349 350 352 353 352 351 351 352 354 354 353 354 355 355 354 354 353 352 352 352 353 352 353 352 355 355 355 356 355 354 352 351 351 349 348 348 346 347 347 346 345 345 345 345 344 342 341 343 330 301 301 300 297 296 296 296 297
322 322 324 326 328 328 329 328 330 331 329 331 331 333 334 334 335 336 337 339 338 340 342 342 341 343 345 345 347 347 347 347 346 351 352 352 352 352 352 353 354 355 354 353 353 352 353 352 351 349 348 347 350 351 350 352 353 354 354 353 352 349 348 347 347 346 345 345 345 344 344 344 344 343 343 341 342 341 341 341 330 310 297 294 295 295 295
325 326 327 328 326 327 327 325 324 331 331 331 330 331 332 334 335 336 338 339 339 340 339 340 342 344 345 344 344 344 344 344 345 348 350 351 351 352 353 355 355 354 351 349 348 348 347 348 346 345 344 345 348 350 351 351 351 351 350 350 349 347 343 345 348 347 345 344 344 344 343 344 343 342 341 342 342 341 341 340 340 340 342 329 304 295 312
327 327 327 321 320 321 325 329 329 331 330 331 330 332 332 333 334 335 336 337 338 338 338 339 339 342 344 345 344 343 343 345 345 346 347 348 350 350 350 350 349 348 345 344 344 345 345 345 343 342 342 344 346 348 348 348 348 347 346 346 346 345 345 344 346 345 344 345 344 343 343 343 344 342 342 342 341 342 340 342 341 341 340 343 338 313 300
325 325 328 328 327 328 330 330 329 330 330 331 331 333 332 332 333 332 333 333 335 337 337 338 340 341 341 343 344 344 344 343 341 340 341 343 344 346 346 346 346 346 344 343 343 345 344 343 341 340 340 343 344 346 347 347 347 346 345 343 344 344 343 343 344 343 343 343 343 344 341 340 340 342 343 343 343 342 341 341 341 341 341 343 343 328 312
325 326 327 328 329 329 328 325 325 328 329 330 330 330 331 330 330 329 331 331 333 333 335 336 337 337 338 337 337 337 335 336 337 339 340 341 342 342 343 344 343 343 343 342 341 342 341 340 339 338 339 341 343 344 345 345 343 345 344 344 343 341 342 343 343 342 342 342 341 339 341 341 342 342 341 343 341 339 339 338 339 338 338 339 341 339 338
324 326 327 328 328 329 327 326 326 325 327 329 330 330 330 330 331 328 328 330 331 332 335 336 337 337 337 336 336 337 337 337 338 340 340 341 342 343 343 343 339 336 336 337 340 340 339 338 337 337 340 341 342 343 343 343 343 343 343 341 341 333 331 334 337 340 340 339 339 338 339 338 340 341 340 339 339 338 341 339 338 338 336 337 336 334 335
323 324 325 325 326 326 327 328 325 326 325 327 328 328 329 329 329 329 328 329 330 332 334 336 336 337 338 339 339 339 338 337 337 337 336 337 338 339 339 338 338 338 338 338 339 339 338 337 337 338 341 341 342 342 341 341 341 339 338 339 339 339 336 333 338 339 339 340 339 338 339 339 340 341 340 339 338 338 336 337 338 336 335 335 333 335 339
321 320 321 321 322 323 324 325 324 326 327 327 327 329 329 331 331 331 331 330 330 332 333 335 336 337 337 337 337 337 336 335 334 334 334 334 335 336 337 336 337 338 338 338 337 338 337 336 337 339 340 341 340 340 340 340 340 339 339 339 338 338 337 335 336 339 339 337 337 336 338 337 338 338 337 337 337 336 335 334 335 334 336 338 336 333 330
322 322 323 326 326 325 325 327 327 328 330 329 330 330 331 332 332 332 332 331 332 333 333 334 335 336 336 335 335 335 334 332 330 330 332 333 334 335 335 335 336 337 338 338 338 337 338 338 339 339 339 339 339 339 339 340 339 340 340 338 338 337 338 337 338 338 337 336 336 336 337 337 336 335 335 336 336 336 334 335 334 334 334 332 334 335 321
326 326 327 327 329 329 330 329 328 326 329 331 330 329 329 331 334 334 332 331 332 332 334 335 335 335 334 333 332 331 330 329 329 330 331 331 333 334 334 333 333 333 333 334 335 336 338 339 339 339 339 338 338 338 337 338 338 338 338 337 337 336 336 336 335 334 335 335 336 336 336 335 334 334 333 333 334 334 334 333 333 333 333 332 331 331 329
328 328 327 328 329 330 330 329 330 330 332 332 331 331 333 333 333 332 332 332 334 333 333 333 333 332 331 330 329 329 329 329 329 329 329 330 332 333 333 332 331 330 331 331 334 335 336 336 337 337 336 336 335 336 336 337 338 337 338 337 335 335 335 335 335 334 334 335 334 334 334 332 333 332 332 334 333 333 332 331 330 329 328 328 328 328 329
328 326 326 327 328 329 330 330 331 332 333 333 332 332 332 332 332 333 333 333 332 331 330 330 328 327 326 327 328 328 328 328 328 328 328 329 330 330 330 330 330 329 329 327 330 333 334 334 334 334 334 334 333 335 335 335 336 336 336 335 334 333 331 331 332 332 332 332 331 332 331 331 331 330 329 328 328 327 327 327 326 326 325 325 325 324 324
326 326 326 327 328 329 331 331 332 333 333 332 332 332 332 332 332 333 332 331 330 330 329 328 327 326 326 327 327 326 327 328 328 327 328 328 328 327 326 326 326 327 326 327 331 333 333 333 332 333 333 332 332 333 333 332 332 333 333 332 331 330 330 330 330 330 330 330 330 330 329 328 328 327 327 327 327 326 325 325 325 324 324 324 323 322 321
325 327 329 329 329 329 330 331 331 333 332 332 331 332 333 333 332 332 331 330 330 329 328 328 328 326 325 325 325 326 327 327 327 327 326 326 326 324 323 325 327 328 329 331 332 331 332 332 332 331 331 331 331 331 332 330 331 331 331 331 330 329 328 328 328 327 327 328 328 327 327 326 327 326 325 325 326 325 324 323 323 323 322 322 322 321 321
325 326 327 328 328 329 329 329 331 333 332 332 332 331 332 332 331 330 329 328 328 328 328 327 326 324 324 324 324 324 326 328 328 327 327 326 325 323 323 324 326 328 329 329 330 330 330 329 331 330 330 331 330 330 330 329 329 329 330 328 329 327 326 326 326 326 325 326 325 324 323 323 323 323 323 323 323 322 322 322 322 321 320 320 320 320 320
326 326 328 329 328 329 329 331 331 332 332 331 333 333 332 332 331 329 327 326 327 327 326 326 324 323 323 323 324 324 325 325 326 326 327 326 324 322 319 318 324 327 328 328 329 328 326 327 327 328 328 329 329 328 328 328 328 328 328 326 326 325 325 324 324 324 324 324 323 323 322 323 321 321 321 321 321 321 320 320 319 319 319 318 318 318 318
327 329 329 328 328 329 327 330 330 329 330 331 332 333 333 332 330 328 328 328 327 327 326 325 325 323 323 323 323 323 323 323 323 323 323 322 321 320 318 319 324 324 325 325 326 325 326 325 325 325 326 326 325 324 325 327 326 326 324 324 324 323 323 322 322 322 322 322 321 321 321 321 320 320 319 319 318 318 318 318 318 317 317 317 317 317 316
325 327 328 328 328 329 329 328 328 329 330 330 331 331 331 331 329 328 328 327 326 325 324 324 324 323 322 323 322 321 320 321 321 321 320 320 321 321 320 320 323 324 323 323 324 324 323 324 324 324 323 324 323 322 323 324 323 323 322 322 321 321 321 321 320 320 320 321 320 319 319 319 319 319 317 317 317 317 316 316 316 315 315 315 315 314 314
326 328 329 329 328 327 327 328 329 330 328 328 330 331 329 329 329 327 326 326 326 325 324 324 323 322 322 322 321 319 320 320 320 320 318 317 318 320 321 321 321 321 321 322 322 321 321 321 321 320 320 320 320 321 321 321 321 320 321 320 321 320 319 319 319 319 318 318 318 318 317 318 317 317 316 315 315 315 315 314 314 314 314 314 314 313 313
327 329 330 329 328 327 328 328 326 325 327 329 328 328 328 327 327 327 326 325 324 324 324 323 322 321 320 319 318 318 318 319 320 320 318 316 315 315 319 320 320 320 319 319 319 319 319 319 319 319 318 319 320 320 320 319 318 318 318 318 317 317 317 317 316 317 317 318 317 316 316 316 316 315 316 315 314 313 312 313 313 313 313 312 312 311 312
327 329 329 326 326 326 326 326 326 326 326 324 323 324 325 325 324 324 324 324 324 323 323 322 321 320 320 319 319 319 319 319 318 319 319 318 316 317 319 319 319 318 319 318 317 317 317 318 318 318 318 317 316 315 315 314 313 313 313 312 312 312 313 314 315 315 315 314 315 314 315 314 314 314 314 314 313 312 312 311 312 312 312 312 313 311 311
323 324 323 322 321 323 326 326 327 325 323 322 320 320 322 324 324 323 323 323 323 322 322 322 321 321 321 320 319 318 317 317 317 318 318 318 318 318 318 318 318 317 317 317 316 316 316 316 316 317 315 314 314 313 312 312 312 311 310 310 309 310 309 310 311 313 313 313 313 313 313 313 314 314 314 312 312 312 311 312 311 311 312 311 311 310 310
320 321 322 322 323 324 325 324 321 319 319 319 320 320 321 322 322 321 322 322 321 320 320 320 320 320 320 320 320 320 320 318 314 315 318 319 319 319 318 316 315 316 314 314 314 316 316 316 316 317 315 314 313 314 314 312 312 311 310 308 308 307 307 307 308 309 310 310 312 313 313 313 313 312 312 312 311 312 311 310 311 311 310 310 310 310 310
321 322 323 324 324 324 324 322 319 318 318 319 320 319 320 320 320 319 319 319 318 318 317 318 319 319 320 319 320 319 320 320 318 314 315 315 314 315 317 316 315 314 313 312 312 311 314 316 315 315 315 314 314 314 313 313 312 311 310 309 308 308 307 307 307 309 309 309 310 310 311 311 311 311 311 311 311 310 310 309 309 308 306 308 309 309 308
322 324 324 323 323 322 321 320 319 319 319 320 319 319 319 318 315 315 315 315 315 316 317 316 317 318 318 317 318 318 319 319 319 318 317 316 316 317 317 318 317 315 314 313 313 312 313 314 313 314 314 315 314 313 314 313 312 311 312 311 310 309 307 307 308 307 308 308 307 307 308 308 309 308 308 308 307 308 308 307 307 306 304 306 307 307 307
320 320 321 322 323 323 323 321 320 319 319 318 319 318 317 315 314 315 315 315 316 314 314 315 315 316 316 316 316 316 316 317 317 317 317 316 317 316 316 316 317 316 317 316 316 317 317 316 316 315 315 314 313 314 313 314 312 312 311 311 312 312 310 309 309 309 308 308 308 307 307 307 308 308 307 307 306 306 306 307 306 307 307 306 307 308 307
321 320 321 322 322 321 320 320 321 320 319 318 317 317 317 316 315 314 315 316 316 316 315 315 314 316 316 315 314 315 316 316 316 315 316 315 315 315 315 315 316 316 317 317 317 318 316 314 313 313 314 315 315 314 311 311 313 313 312 312 311 311 310 310 311 311 310 309 308 308 307 307 307 307 307 307 307 307 307 306 306 306 306 306 307 306 307
Wind_Speed
12 14 13 10 10 11 8 9 8 7 8 11 14 15 14 12 10 8 9 10 11 10 10 5 3 3 6 11 11 10 10 9 10 11 11 10 9 9 9 8 7 7 7 6 7 7 6 7 7 7 7 7 7 7 8 9 8 9 8 9 11 10 10 9 9 7 6 7 8 8 7 8 7 7 7 6 6 6 7 7 8 9 10 11 11 12 11
12 12 12 11 13 12 12 11 11 10 7 9 13 15 14 12 12 11 9 6 10 10 4 3 3 1 4 10 9 10 11 11 11 12 11 10 9 9 10 9 8 7 7 7 7 7 7 8 8 8 7 7 7 7 7 7 8 8 9 9 10 10 9 9 8 7 8 7 8 8 5 7 8 7 7 7 7 7 7 7 7 6 8 9 10 11 11
10 5 7 10 12 13 13 13 10 10 9 8 11 13 13 13 11 10 8 9 8 4 4 3 1 2 5 10 12 12 11 11 12 12 11 10 10 10 9 9 8 8 7 7 7 7 7 7 8 7 6 7 6 6 6 7 7 7 8 8 9 10 9 9 8 7 7 6 6 8 7 7 6 6 6 6 7 7 7 7 7 7 7 8 9 8 9
8 7 5 10 11 13 14 10 8 9 10 11 10 12 11 11 12 12 11 10 7 5 4 5 4 5 8 12 13 12 10 11 12 12 12 11 10 10 9 9 8 8 7 7 7 7 7 7 7 7 7 6 6 6 6 6 5 6 6 7 7 8 7 6 6 6 7 7 6 6 5 5 5 5 5 7 6 6 6 6 7 7 8 8 7 7 8
8 8 7 7 12 11 13 9 3 2 4 7 6 6 4 7 5 10 10 5 6 3 2 1 3 6 10 12 13 12 12 11 12 12 12 11 11 10 10 9 9 8 7 7 7 7 7 7 7 7 7 6 6 6 6 6 6 6 5 5 6 6 7 6 5 5 5 5 4 1 1 4 6 5 6 6 6 6 7 7 7 8 8 8 8 8 9
5 7 10 11 11 12 5 5 2 4 2 4 7 6 5 2 5 4 5 5 4 4 4 4 1 5 6 9 9 10 11 11 11 12 12 11 11 11 9 9 8 8 7 7 7 7 7 8 8 7 6 6 6 7 6 7 7 6 5 5 4 5 5 5 5 4 2 1 2 5 5 5 5 8 6 6 6 6 6 6 7 8 8 8 8 8 8
7 6 8 10 9 7 4 4 3 2 5 4 4 6 4 4 2 5 7 6 6 6 6 5 4 2 3 5 9 8 9 10 12 13 13 11 11 10 10 9 9 8 8 8 8 8 8 8 8 7 7 6 7 7 7 7 7 6 5 4 4 4 3 3 2 4 6 6 5 4 5 5 5 5 6 5 5 5 5 6 7 7 6 7 7 8 9
5 9 5 9 4 7 10 9 8 5 3 3 3 8 8 8 7 6 3 6 7 7 7 4 1 1 2 5 7 7 7 10 13 13 12 12 11 11 9 10 9 9 9 8 8 8 8 8 7 7 7 7 6 6 5 6 5 4 4 4 3 3 3 3 2 3 5 7 7 6 6 6 6 6 5 5 5 5 5 5 5 5 6 7 7 8 8
3 6 8 3 7 10 4 2 8 8 5 5 4 2 8 8 8 8 7 8 8 9 7 3 1 2 5 7 6 6 7 10 12 13 13 12 11 10 11 11 11 10 10 9 9 9 8 7 7 7 7 7 7 7 6 5 5 5 4 4 3 3 5 5 4 4 4 6 7 7 7 7 6 6 6 6 6 5 6 6 6 6 6 6 6 7 7
2 4 6 7 4 4 3 8 8 7 6 6 6 4 9 9 11 11 10 10 10 10 7 3 1 4 7 9 8 8 9 10 13 12 12 12 11 12 12 12 11 11 10 10 9 9 9 9 8 8 8 7 7 7 6 6 5 5 5 6 5 4 5 6 6 5 4 4 5 6 6 6 6 6 5 5 5 5 5 5 5 5 4 4 5 6 6
3 7 7 1 5 4 4 9 11 10 7 5 3 6 5 9 13 13 12 11 11 9 8 2 2 5 5 6 8 10 13 12 13 13 13 13 12 12 12 13 12 12 10 10 11 10 10 10 9 8 9 9 8 7 6 6 6 6 5 5 5 5 5 5 4 4 3 4 4 5 6 5 5 4 4 3 3 3 3 3 3 3 4 4 4 4 4
4 2 6 4 3 2 7 11 11 11 7 2 5 7 5 11 15 13 13 13 12 11 7 4 4 3 5 8 8 12 14 13 13 14 14 14 13 13 13 12 12 12 11 11 10 10 10 10 9 8 8 8 7 7 7 6 6 5 5 5 4 3 3 3 3 3 3 4 4 4 4 4 3 3 3 4 4 4 3 3 3 3 4 4 5 4 4
5 5 3 3 2 5 12 14 13 10 9 5 6 2 6 13 14 13 13 12 12 10 5 3 2 5 5 4 3 13 14 13 13 13 13 13 13 14 14 14 14 12 10 10 10 10 9 9 8 7 7 7 7 6 6 6 6 7 7 6 5 5 5 6 6 6 5 5 4 4 4 5 4 4 4 4 4 4 4 3 3 3 3 2 2 1 2
7 6 5 5 4 4 12 13 7 13 9 2 4 5 9 11 12 12 12 12 11 10 5 4 4 5 6 1 3 12 13 14 13 13 14 14 13 13 14 14 12 11 10 11 11 11 9 9 8 7 7 7 7 7 6 6 8 8 8 8 8 8 8 7 7 7 6 5 5 4 4 4 4 3 2 2 3 2 2 2 3 3 4 3 3 2 2
4 5 6 3 5 6 15 15 4 16 6 5 7 11 11 9 11 11 11 10 10 10 8 7 4 5 7 2 6 12 13 14 15 15 15 14 14 14 14 13 12 12 11 11 11 10 9 9 8 7 7 8 7 6 6 9 9 9 9 9 10 9 9 8 8 7 6 6 5 4 3 3 4 5 3 3 3 3 3 4 4 4 4 3 3 3 3
4 6 8 1 4 7 10 11 7 7 6 6 9 10 10 10 9 10 9 8 10 9 9 11 10 7 5 3 3 10 13 14 14 15 14 14 14 14 13 14 13 13 11 11 10 9 8 7 6 6 7 7 7 7 9 7 8 8 8 8 8 9 8 8 7 7 6 5 5 5 5 4 4 4 5 4 4 4 4 4 4 4 3 3 2 2 2
3 2 4 3 4 6 6 8 6 6 7 8 10 10 10 10 9 11 9 10 11 11 11 11 10 6 4 3 2 6 13 14 15 15 16 15 14 14 13 14 13 12 12 13 11 10 8 8 6 5 5 7 8 8 7 6 7 8 7 7 7 7 7 7 6 6 5 5 5 5 6 6 5 6 6 5 4 4 4 3 3 2 2 2 1 0 2
5 1 2 2 3 6 6 6 5 6 9 10 10 11 10 9 10 9 10 11 11 10 10 11 9 8 8 4 3 5 9 13 14 15 15 15 14 14 14 13 12 12 12 13 12 11 9 8 7 6 7 8 9 8 6 6 6 7 7 7 6 6 6 5 6 7 7 6 5 4 4 4 4 3 4 5 4 3 3 3 2 2 2 1 1 1 1
4 1 1 3 5 4 3 6 6 7 8 11 11 10 10 11 10 10 10 10 10 9 8 8 9 9 9 0 2 6 8 11 14 15 15 15 14 14 14 13 13 12 12 12 12 12 11 9 8 7 7 8 8 7 6 6 7 7 7 7 6 5 5 6 5 3 3 3 4 5 3 3 4 3 2 2 2 2 2 2 2 2 2 2 3 2 0
6 1 3 5 4 2 2 5 8 10 11 12 12 10 11 11 10 10 11 11 10 8 7 8 9 8 7 1 7 7 8 10 12 13 14 14 13 12 13 13 12 11 10 11 12 11 10 8 7 8 7 8 7 6 7 8 7 6 6 4 5 5 5 5 4 4 5 4 3 2 3 3 3 2 0 1 1 1 1 2 2 1 1 2 3 4 3
5 2 2 8 3 3 3 5 9 9 9 11 13 12 12 12 12 13 13 12 11 10 8 8 6 7 4 2 5 10 9 9 10 12 13 13 13 13 14 12 11 10 10 11 12 12 10 8 8 8 8 8 8 8 7 7 6 6 6 6 4 5 4 4 5 2 2 2 3 3 2 4 3 3 4 5 5 3 5 5 5 5 4 3 1 1 2
1 2 4 9 3 2 5 7 10 10 9 10 12 12 12 13 15 15 16 15 13 11 8 8 6 6 4 3 3 8 9 9 11 13 13 13 14 14 13 12 12 12 12 12 12 11 9 8 9 9 9 8 7 8 7 6 5 6 5 4 5 4 4 3 4 2 2 2 4 1 2 2 4 6 3 2 3 4 3 5 5 6 5 3 5 5 5
4 6 7 4 5 5 4 7 8 8 7 8 11 13 12 12 12 14 14 15 15 12 10 9 8 6 3 4 4 6 8 8 10 11 14 14 13 13 13 14 14 13 13 13 13 11 10 9 9 9 8 8 7 7 6 5 5 5 4 4 3 3 2 3 5 4 3 3 2 2 2 2 3 3 2 5 3 2 4 4 3 2 2 2 2 4 4
8 11 7 6 6 6 5 6 7 6 7 8 9 10 10 11 12 13 13 12 13 12 10 9 10 8 6 6 6 8 8 8 10 11 12 13 14 14 13 13 14 15 14 13 12 11 9 9 8 8 8 7 6 6 6 5 4 4 4 3 3 3 3 3 3 3 4 3 3 2 1 1 2 2 3 1 4 4 4 3 6 3 1 1 1 2 2
5 6 8 9 8 7 5 5 4 3 5 6 8 11 11 11 11 12 11 10 8 10 9 9 10 9 8 8 8 9 8 8 8 10 11 11 12 13 14 16 15 14 12 10 10 10 10 9 9 8 8 7 6 6 5 4 3 3 3 3 3 3 3 3 3 3 4 4 3 3 3 3 2 2 3 3 3 2 4 3 2 2 3 4 4 5 4
7 7 9 10 9 6 5 6 4 0 3 4 6 10 9 9 11 11 10 9 7 7 9 9 9 9 8 8 8 10 12 10 7 7 9 11 12 12 13 13 12 11 11 10 9 9 10 11 10 10 9 7 5 3 4 3 2 3 3 3 3 4 4 4 3 3 3 3 3 3 3 4 4 4 4 3 3 4 3 3 3 3 5 5 5 4 5
3 4 6 6 4 2 4 5 6 8 6 5 4 7 9 9 9 8 7 5 6 8 9 9 8 7 7 9 10 9 12 12 6 5 3 9 11 11 11 11 12 12 13 12 11 10 10 9 9 9 9 8 6 4 3 3 3 3 3 2 2 6 5 3 3 3 3 3 3 3 3 4 4 4 4 3 4 4 4 5 5 4 1 3 4 8 5
3 2 3 4 5 7 7 6 7 9 7 6 6 6 8 8 7 6 5 6 7 6 6 7 7 7 8 8 10 11 11 12 9 6 4 8 9 10 11 12 13 13 12 12 11 11 10 9 8 9 9 7 6 4 4 4 5 5 4 3 2 2 1 1 1 2 2 3 4 4 4 4 4 5 4 5 5 4 4 4 4 4 5 1 5 8 12
5 5 4 4 5 6 5 4 5 6 6 5 4 5 6 8 5 5 5 6 5 4 5 6 7 7 6 6 8 10 10 9 11 11 8 7 9 9 10 12 12 12 12 11 11 11 10 9 9 10 9 7 5 5 5 5 5 5 4 3 2 2 2 2 2 2 2 3 4 4 4 4 4 4 5 4 4 4 4 4 3 4 3 4 1 5 3
8 8 7 7 6 4 4 6 6 6 5 5 4 2 5 3 3 4 6 4 4 5 5 5 5 5 7 9 11 10 9 9 9 10 9 7 8 9 10 11 12 12 11 11 11 10 10 10 9 9 8 7 6 5 5 5 6 6 6 4 3 2 1 1 0 1 1 2 2 1 4 3 3 4 4 4 4 5 5 5 4 5 7 4 3 6 2
10 10 11 9 8 6 5 2 5 4 3 4 5 0 2 4 3 5 4 2 4 5 5 5 5 6 7 9 9 10 11 12 11 11 10 9 9 10 9 9 10 10 10 11 11 10 10 10 9 8 7 6 6 5 5 5 5 5 5 4 5 6 4 6 2 1 1 1 1 3 2 3 3 3 3 4 4 4 2 3 5 5 5 7 5 9 9
11 11 11 9 7 6 5 3 5 4 4 5 6 5 3 4 4 8 5 2 4 5 5 6 7 7 8 8 10 11 12 12 12 12 12 12 12 12 13 13 13 12 11 11 11 10 9 9 9 8 7 6 6 6 6 6 6 5 5 4 4 3 3 8 1 1 0 0 1 2 2 2 2 2 3 3 5 4 5 5 5 5 4 8 9 6 5
10 10 8 6 7 8 6 6 4 1 5 5 6 6 5 4 4 4 6 6 6 5 5 6 6 7 8 9 9 10 11 12 12 12 12 13 13 12 12 12 11 11 12 11 10 9 10 9 7 6 7 6 7 7 6 6 5 5 5 4 4 4 3 3 5 1 1 1 1 3 3 3 3 2 3 4 3 5 5 4 4 5 3 4 6 7 5
9 9 10 10 8 8 8 6 4 5 3 5 4 3 5 6 5 6 8 8 8 8 7 7 7 8 9 10 9 9 10 11 11 11 12 12 12 12 12 13 12 11 11 11 11 8 8 7 7 7 7 7 7 7 7 6 5 5 4 3 3 4 3 3 0 2 3 3 3 3 4 4 4 4 4 4 5 5 5 5 5 5 5 7 6 6 9
9 10 10 10 9 9 7 6 4 4 3 2 3 6 4 3 4 6 7 8 9 8 7 8 9 9 10 10 11 12 12 12 12 12 11 11 11 12 11 12 12 11 12 11 11 10 10 9 7 8 9 9 9 8 8 8 7 6 6 5 5 4 4 4 4 4 4 4 4 4 5 5 5 6 6 5 4 4 4 5 6 7 7 7 7 7 7
8 7 7 7 7 6 6 4 4 3 2 1 1 1 4 5 7 7 9 10 9 9 9 9 9 10 11 11 11 12 12 12 12 12 11 11 10 9 10 11 11 11 11 12 11 10 9 10 13 12 8 9 10 10 9 8 7 7 6 5 5 5 5 5 5 5 5 5 5 5 5 6 6 7 7 7 7 7 7 7 7 7 7 7 7 7 7
5 5 6 6 5 5 4 2 1 0 1 1 2 3 5 7 9 9 10 10 10 10 10 10 11 11 11 11 11 11 11 10 9 10 10 10 10 10 10 10 9 9 10 10 9 9 10 10 11 10 9 9 10 10 10 10 7 6 6 6 6 6 5 5 5 5 6 6 6 5 5 5 6 6 6 6 6 6 6 6 6 6 6 6 7 7 6
5 4 5 5 4 4 3 1 1 2 3 4 4 5 5 7 9 10 10 10 10 10 10 11 12 11 11 11 11 11 11 11 11 11 11 11 10 11 11 9 8 8 9 9 7 8 8 9 10 9 9 9 9 9 9 10 7 6 6 6 6 6 6 6 6 6 6 6 6 6 6 6 6 6 6 6 6 6 6 6 6 6 6 6 6 6 6
6 5 4 4 3 3 2 1 2 2 3 5 5 5 5 7 9 12 11 11 10 11 12 12 13 13 13 12 11 10 11 10 11 11 11 12 12 12 11 9 9 10 8 7 8 8 8 9 8 8 8 8 8 8 8 7 7 6 6 6 6 5 5 5 5 6 6 6 7 7 7 7 6 6 5 5 5 5 6 6 5 6 6 6 6 6 6
5 4 4 3 3 2 2 3 3 4 3 4 5 7 8 9 10 11 12 12 10 10 11 11 12 12 12 12 12 10 10 9 9 10 11 10 11 11 11 10 10 9 9 10 9 9 9 10 8 7 7 7 7 7 7 7 6 6 5 5 5 5 6 6 5 5 6 6 7 7 7 6 6 6 5 5 5 5 6 5 5 5 5 5 5 5 5
5 3 2 2 2 2 2 4 4 4 4 4 6 7 7 9 9 11 11 11 11 11 11 12 12 12 13 12 12 11 10 10 9 9 8 9 9 8 9 9 7 7 8 8 8 8 10 9 8 7 7 7 6 8 6 7 6 6 5 5 6 6 6 5 6 7 7 7 6 6 6 5 4 5 5 5 5 5 5 5 6 6 5 5 5 5 5
2 3 3 3 3 3 6 6 7 7 6 5 6 8 9 10 11 11 12 11 12 12 12 12 14 13 12 12 12 11 11 12 11 11 11 9 8 7 8 8 7 7 7 7 8 8 7 8 8 8 7 6 7 10 8 6 6 6 6 7 6 6 6 6 7 6 6 6 6 6 5 5 5 5 5 5 5 5 5 5 5 5 5 5 5 5 5
3 4 4 5 6 6 7 8 8 9 9 8 7 9 10 11 11 11 11 12 13 13 13 13 13 13 12 11 11 11 11 10 11 11 11 11 10 9 7 6 6 6 7 7 7 7 7 7 8 8 10 8 7 7 7 7 7 7 6 6 7 6 6 6 6 5 4 4 5 5 4 4 4 4 4 4 4 5 6 6 6 6 5 5 5 5 5
5 4 5 6 8 9 8 8 9 9 9 8 8 9 10 9 10 11 12 12 12 12 11 11 11 10 10 10 10 9 8 7 8 8 8 9 10 10 9 8 7 8 10 8 8 8 8 9 8 11 13 11 11 10 7 7 7 7 7 6 6 6 5 5 5 5 5 5 5 5 4 4 5 5 5 5 6 5 6 6 5 5 5 4 5 5 5
3 3 6 7 9 10 9 9 10 10 8 7 9 9 10 11 11 11 11 11 11 11 10 10 10 9 9 9 9 9 8 7 6 5 7 8 9 9 8 9 9 9 10 11 9 10 10 9 10 12 10 10 9 9 7 7 7 6 6 6 5 5 5 5 5 5 5 5 4 4 4 4 4 4 4 4 4 4 5 5 4 5 5 5 5 5 5
3 5 7 8 9 10 11 12 11 9 10 12 12 11 10 10 11 11 10 10 10 10 10 10 10 10 10 10 10 11 11 10 10 10 9 8 9 9 9 9 9 9 10 10 9 9 10 13 12 10 10 7 7 7 7 7 7 6 6 6 6 5 5 5 5 5 5 5 5 5 5 4 3 4 4 5 5 5 4 5 5 5 5 5 5 5 5
8 9 10 10 10 9 10 12 12 12 12 11 11 10 9 10 10 10 10 10 10 10 10 10 10 9 8 8 8 8 9 10 10 9 9 10 10 11 11 12 13 12 9 8 9 8 8 9 9 8 8 9 9 8 8 7 7 7 7 7 7 6 6 6 5 5 5 5 5 3 2 3 4 4 3 3 3 4 4 4 4 4 4 4 4 4 5
7 8 9 9 10 9 9 8 9 10 10 10 10 10 10 10 9 9 9 9 9 10 9 9 9 9 9 9 8 8 7 8 9 9 7 8 8 8 8 8 10 13 13 12 12 10 11 9 8 6 5 7 8 8 8 8 8 8 8 8 8 7 7 7 6 5 5 4 3 4 4 4 4 3 3 3 3 3 3 4 4 4 5 6 5 5 5
9 9 9 8 11 11 10 8 8 8 7 8 9 9 10 10 10 9 9 9 9 9 9 9 10 9 9 8 8 8 8 8 8 9 8 8 9 9 9 9 10 10 9 9 9 8 7 7 5 5 7 8 7 7 7 7 8 8 8 8 8 8 7 7 7 6 5 5 4 4 4 4 4 4 4 4 4 4 4 4 3 4 6 5 4 4 4
7 8 7 6 6 7 7 7 7 7 7 8 8 8 8 8 7 7 6 7 7 8 8 8 8 8 8 9 8 8 8 9 9 9 9 9 9 8 8 8 8 9 8 8 8 7 6 5 5 6 6 6 6 6 7 7 7 7 7 6 6 6 6 5 5 6 5 5 5 5 5 4 4 4 4 4 4 4 4 4 4 2 4 4 4 4 4
6 7 6 6 6 7 8 7 7 8 8 8 8 7 7 7 7 7 7 7 8 9 9 9 9 8 8 8 8 8 9 9 9 8 8 8 7 8 7 6 6 5 5 4 4 4 4 4 4 3 4 5 5 5 5 5 5 5 5 6 6 5 5 5 5 6 6 5 5 5 5 5 4 4 5 5 4 4 4 4 4 5 5 5 4 4 4
6 6 7 6 7 8 8 9 8 8 7 6 6 6 7 7 8 8 8 8 7 8 8 9 9 8 7 8 8 8 8 8 8 8 7 7 7 7 6 6 6 5 4 5 4 3 4 4 3 4 3 2 3 3 4 2 1 3 3 2 2 3 4 3 4 4 4 4 4 4 4 5 4 4 4 4 5 5 5 4 5 5 4 5 4 4 4
Wind_Direction
269 266 271 272 257 257 264 258 269 240 211 215 219 223 225 205 226 237 217 209 217 235 255 83 98 87 185 169 162 149 136 130 126 127 127 127 128 127 120 117 118 129 133 139 143 146 148 151 156 156 160 165 169 176 184 190 190 198 194 193 187 183 192 198 202 200 208 197 201 198 198 206 200 190 197 215 222 225 225 225 229 233 235 237 242 243 244
282 257 246 242 240 242 244 243 242 249 232 212 217 220 219 210 222 233 239 202 213 231 260 313 32 326 194 154 141 138 142 141 139 132 131 131 129 128 124 123 125 128 135 140 143 143 146 152 151 154 159 163 166 174 179 180 189 194 187 188 188 182 182 193 190 189 194 202 199 194 182 207 218 213 211 213 217 220 224 226 229 232 234 237 240 240 239
281 234 224 223 233 229 233 231 233 234 242 238 222 224 220 218 230 233 246 245 245 110 76 92 96 214 150 141 156 154 145 148 146 137 133 132 130 123 121 128 132 136 140 140 140 142 144 146 146 144 150 156 161 160 161 167 177 175 181 189 195 180 183 184 187 184 190 198 199 203 207 218 217 222 223 212 215 216 219 223 229 231 232 234 236 240 243
270 251 228 231 216 217 222 213 218 224 230 234 220 214 208 218 219 228 233 238 227 102 118 137 170 174 172 162 159 153 153 157 146 138 134 132 131 130 132 137 141 145 144 141 139 136 133 131 132 136 135 139 146 149 149 145 153 161 182 193 193 190 178 190 181 189 200 203 199 204 214 229 229 231 219 214 211 213 215 219 224 225 226 224 227 230 232
269 300 311 223 208 195 203 181 96 316 245 248 245 216 221 241 274 238 228 213 40 12 8 175 159 182 170 162 167 154 155 155 147 138 135 134 135 138 144 147 150 144 135 128 124 120 120 121 121 122 124 133 135 132 138 138 147 160 173 182 178 184 181 184 188 192 198 211 191 170 204 230 244 213 214 215 214 214 215 216 217 218 216 216 217 220 225
265 245 298 283 206 193 164 46 38 12 352 214 224 194 196 190 242 254 336 334 347 349 336 340 87 181 177 163 153 155 153 151 137 131 131 133 138 145 149 146 136 125 121 121 112 105 105 112 115 116 119 126 130 134 138 144 149 156 158 160 172 177 181 183 179 151 99 66 205 196 228 231 217 221 214 213 213 211 214 210 214 219 217 218 222 222 225
252 295 288 253 201 173 106 104 68 15 36 44 107 106 75 50 21 291 270 283 336 344 337 328 352 22 126 143 139 142 150 141 130 128 131 138 146 146 144 138 129 120 116 110 106 102 104 112 120 125 125 125 128 133 142 148 153 156 162 155 163 155 161 152 150 155 168 141 222 205 225 222 223 228 218 215 213 211 213 213 213 217 221 222 225 228 227
263 264 259 225 121 108 119 85 51 14 221 51 190 106 74 53 28 11 322 344 346 342 341 346 333 140 135 132 121 106 130 142 136 137 140 147 151 148 141 132 123 127 124 121 119 112 115 122 125 132 126 125 131 132 138 143 146 148 138 143 146 150 98 80 133 157 156 163 178 186 197 219 226 220 216 213 209 199 213 217 216 218 222 227 226 230 233
241 235 238 143 169 170 101 107 23 356 349 326 321 158 83 42 37 22 4 354 356 351 350 338 95 158 160 140 119 123 135 141 141 140 144 150 147 137 132 130 129 124 125 125 119 124 124 119 123 124 122 124 126 133 134 129 128 122 119 102 81 106 124 155 182 195 184 165 186 175 184 189 198 197 203 200 203 202 207 211 213 215 224 224 228 235 238
169 253 286 177 174 158 90 30 348 342 314 298 256 245 107 40 34 17 9 3 358 353 345 337 172 184 179 156 143 145 145 134 133 136 136 137 133 134 126 121 122 126 123 121 126 127 123 121 120 120 119 122 129 131 129 124 122 122 129 129 145 146 161 161 180 200 192 184 173 174 175 185 188 193 198 201 199 196 213 208 220 223 229 235 237 244 244
241 225 251 146 170 129 30 357 356 350 347 264 201 234 113 42 15 10 2 3 1 357 343 336 189 205 161 148 143 153 151 142 138 135 136 135 133 128 129 131 130 126 127 124 123 124 125 118 124 126 123 130 132 131 131 132 136 139 147 145 154 162 166 169 187 174 178 172 163 169 177 174 181 178 189 201 192 207 220 223 219 223 222 227 226 237 250
251 223 225 213 92 159 8 352 345 346 355 258 229 206 141 22 358 358 356 0 359 353 338 302 211 253 146 141 165 160 151 147 144 142 139 135 134 135 132 128 122 117 118 126 129 124 119 119 129 127 135 137 131 134 137 140 145 140 139 141 143 142 140 139 141 138 141 158 164 168 155 139 149 160 154 162 165 190 182 204 207 210 221 219 215 207 202
212 191 209 291 162 69 3 344 327 338 339 287 241 164 21 343 339 350 350 359 3 355 340 285 176 89 18 336 210 149 149 144 140 136 132 132 133 132 129 121 125 129 135 130 123 124 125 129 129 135 133 129 131 128 133 139 134 130 127 126 130 137 143 143 143 144 145 147 145 136 132 140 140 144 158 160 168 167 173 187 183 209 215 234 249 252 258
239 262 227 220 100 33 343 339 354 343 291 215 73 4 331 323 335 343 354 358 6 358 358 320 334 8 17 8 200 148 145 138 133 134 133 132 130 122 118 128 134 131 126 123 125 121 128 135 135 139 139 128 129 139 146 133 124 126 132 132 127 128 132 133 133 134 133 138 134 124 123 143 144 137 132 168 165 153 156 188 184 189 170 186 203 183 235
248 213 250 215 221 49 3 341 360 14 23 15 324 317 318 332 337 343 353 355 3 351 344 347 348 343 21 49 182 155 139 133 134 133 133 131 130 129 131 136 132 131 131 134 128 131 139 139 141 145 137 135 139 147 128 116 121 125 126 128 132 133 132 133 133 132 135 138 135 134 149 158 153 142 164 163 155 162 168 168 173 170 182 193 208 224 236
242 223 223 224 22 342 8 16 37 27 24 330 331 328 325 338 343 350 339 354 352 344 343 327 334 359 25 29 201 160 141 134 133 131 131 130 131 138 139 135 138 137 130 124 124 127 125 129 139 138 135 135 138 129 115 114 116 119 121 125 129 126 125 125 127 122 128 138 137 142 149 154 143 151 155 158 171 179 183 187 187 194 197 205 229 256 278
305 350 8 344 340 355 24 32 45 29 13 2 348 343 332 335 345 342 334 346 345 345 336 325 324 333 16 35 204 176 152 142 140 138 138 140 142 141 140 137 137 137 132 130 129 130 129 131 125 121 125 121 120 112 108 116 114 110 113 121 124 124 120 120 126 126 124 114 120 125 135 139 141 146 154 170 165 171 186 193 197 215 225 206 237 249 326
298 210 333 14 298 0 26 50 34 17 10 2 0 355 345 340 337 337 334 333 338 338 339 328 329 332 342 29 153 150 168 143 139 136 138 141 140 140 136 135 135 127 128 130 130 128 129 126 122 124 122 121 115 111 119 117 116 114 117 111 110 116 121 123 131 133 138 126 117 123 137 139 153 165 163 188 169 178 207 204 216 229 245 256 265 297 40
288 214 218 358 6 314 359 30 40 30 10 1 355 352 344 340 340 339 340 336 322 333 331 319 320 317 305 149 105 126 150 138 138 140 139 141 143 143 141 131 130 134 136 133 131 129 127 127 120 113 105 105 107 116 121 118 112 108 106 110 109 105 107 109 103 93 88 92 136 147 135 169 151 168 152 237 174 213 244 244 212 220 232 231 262 244 194
270 98 31 351 322 190 220 9 13 9 7 2 353 340 340 345 344 348 345 340 331 338 331 335 320 312 316 113 143 146 145 144 139 137 137 138 137 131 126 131 137 134 133 130 129 121 114 111 109 103 97 96 97 96 105 107 107 103 85 74 91 94 105 112 105 123 118 145 254 91 72 354 358 6 127 250 281 120 5 345 322 284 270 313 324 324 313
279 189 327 342 308 142 178 25 20 16 8 356 347 343 344 351 355 360 354 354 340 337 342 339 324 314 344 351 162 158 150 144 140 136 132 129 127 129 132 135 135 129 127 121 118 115 112 109 104 96 84 80 91 96 91 89 92 91 91 90 69 77 79 87 103 103 96 111 49 49 122 139 97 23 356 350 354 355 46 9 354 337 331 294 259 303 306
331 25 345 352 316 263 300 345 1 5 8 353 348 345 346 358 4 5 353 345 345 338 355 346 348 345 0 74 160 153 148 146 135 132 129 131 133 133 132 133 127 121 120 119 114 109 108 107 104 101 97 91 80 82 88 93 91 92 90 82 82 61 43 37 44 52 40 79 94 359 325 43 128 131 84 10 356 331 64 75 51 31 7 358 11 350 316
314 329 324 329 306 291 314 331 340 354 3 345 345 351 348 355 7 7 356 345 338 345 2 6 4 39 40 76 118 133 134 135 139 134 135 134 134 134 134 129 126 124 120 116 116 116 115 115 110 106 103 100 101 97 93 90 88 90 85 85 68 78 69 53 34 350 353 22 44 76 355 344 348 327 171 160 196 169 3 96 93 124 91 88 25 359 329
276 279 290 313 307 305 318 322 331 345 2 343 333 340 348 356 5 11 359 347 334 335 354 24 21 32 69 86 107 114 114 130 128 130 130 131 130 130 128 125 123 122 122 122 119 117 115 111 104 101 95 89 87 93 84 81 81 77 67 60 47 30 25 43 55 14 358 20 355 5 353 355 303 309 308 285 149 179 200 177 150 168 210 207 174 213 254
241 282 307 309 304 297 300 307 319 351 352 336 332 339 353 353 6 10 360 350 340 339 351 23 31 31 56 84 108 117 110 109 112 116 120 122 125 125 123 120 121 124 118 113 115 118 119 117 112 103 92 79 70 66 64 58 51 62 47 41 18 22 26 25 14 23 353 9 354 352 338 322 298 303 301 316 306 165 173 158 146 180 229 229 216 213 233
258 274 281 288 294 288 302 277 221 19 327 327 345 336 346 5 2 3 356 352 354 7 5 18 30 40 59 82 98 99 96 89 91 109 114 115 116 112 110 113 115 115 114 115 116 119 118 116 113 111 103 94 82 72 73 71 69 61 49 47 27 17 4 358 354 347 347 340 332 328 326 313 310 303 300 294 299 310 292 186 179 203 212 223 233 252 243
257 256 274 286 280 312 356 338 325 335 335 332 349 322 350 12 360 348 353 354 10 13 12 18 32 45 68 78 84 81 98 98 44 351 81 109 109 110 113 111 107 101 98 102 95 83 79 80 87 93 98 96 89 87 86 80 80 74 62 44 69 103 83 354 331 345 331 333 315 309 301 297 288 283 286 288 289 282 290 304 314 305 217 174 208 218 238
297 322 337 335 324 321 328 327 315 314 321 327 334 343 352 5 353 348 359 15 5 10 24 24 31 40 68 85 100 103 100 108 111 93 66 77 86 98 105 96 91 93 101 100 96 93 90 84 78 78 75 71 73 83 99 108 99 94 88 84 77 13 43 188 348 339 334 320 314 307 310 305 305 297 295 295 293 298 296 307 302 303 308 189 165 205 214
317 325 329 305 305 316 316 300 307 306 315 323 329 314 15 5 340 335 353 8 3 27 49 42 40 45 60 73 85 87 89 97 100 91 81 78 85 89 101 107 104 100 100 101 100 94 91 85 80 78 72 66 66 74 85 88 92 94 93 89 59 52 57 34 355 329 331 312 305 347 341 313 303 294 293 297 295 287 285 285 293 300 301 292 164 124 168
321 319 312 315 308 298 296 317 312 305 306 305 296 314 44 338 290 334 337 11 6 46 51 53 66 65 60 69 76 82 87 86 88 87 84 88 96 99 99 103 100 95 90 84 84 85 79 77 75 71 68 64 63 64 80 92 97 93 90 76 67 43 71 49 80 61 317 298 336 32 259 267 277 285 291 284 286 286 294 295 295 290 289 308 290 290 215
308 307 303 294 288 293 274 280 284 245 240 251 284 327 117 247 216 103 312 25 37 44 54 75 79 88 86 84 88 95 100 96 91 90 89 77 66 72 80 83 87 84 83 82 80 79 78 77 73 70 61 63 70 76 83 84 85 91 91 92 92 75 21 334 351 343 92 292 285 285 297 283 295 299 295 282 267 281 250 265 281 302 316 289 333 34 0
299 297 297 293 289 290 281 173 206 229 216 194 205 220 227 243 209 153 164 98 58 43 54 74 87 86 88 96 103 105 101 96 90 86 84 83 81 80 80 81 83 83 81 78 76 73 71 70 68 66 67 67 64 65 68 72 80 77 77 78 80 109 51 303 227 121 283 185 299 288 307 318 346 319 290 304 346 344 294 314 312 295 308 14 10 33 14
298 297 289 315 336 330 347 15 342 232 201 199 201 189 217 233 218 159 132 122 101 85 87 86 85 90 92 91 93 96 94 92 91 88 86 84 83 82 82 82 79 78 78 77 74 70 72 72 72 70 67 65 65 66 66 69 71 76 81 77 87 85 93 58 339 308 118 345 22 5 351 355 350 19 4 346 327 310 324 324 316 321 2 93 82 58 40
283 289 302 313 313 314 313 324 315 278 181 193 187 195 186 194 182 148 132 128 127 121 116 113 105 96 98 97 95 96 96 91 83 82 84 86 85 81 80 78 76 69 67 68 72 69 70 72 70 67 63 60 60 60 62 65 66 72 71 83 81 86 72 78 66 22 39 25 30 39 21 12 15 13 21 23 7 9 2 341 360 347 2 29 51 65 55
272 278 286 294 299 300 303 299 306 299 303 248 173 171 176 194 176 133 120 120 112 111 109 111 111 108 101 96 88 85 81 79 81 83 83 80 79 80 81 81 79 75 67 62 62 61 55 53 60 71 67 60 57 56 55 52 55 55 62 60 60 61 61 55 43 34 24 25 22 28 31 27 25 18 15 11 16 12 20 22 11 11 18 26 25 25 42
275 287 294 294 298 306 306 299 306 315 335 305 314 60 93 102 107 114 115 112 112 112 112 108 103 100 93 88 85 83 83 82 82 80 77 77 76 83 87 88 88 86 80 73 64 65 63 61 55 58 62 57 55 52 47 48 54 57 52 56 66 62 60 51 53 53 39 30 36 39 44 48 43 38 25 25 29 27 30 28 23 23 26 28 26 24 20
284 298 297 293 297 302 308 307 298 48 109 145 163 130 108 110 106 100 107 114 113 115 113 107 96 89 86 84 84 81 78 79 82 84 85 84 83 79 80 80 78 81 81 74 64 70 72 65 55 56 61 60 58 52 47 43 55 57 58 58 62 59 57 55 51 53 56 54 51 55 54 50 57 51 49 50 45 49 44 42 40 41 40 37 33 26 23
281 267 273 277 283 299 313 323 106 119 143 145 148 133 127 124 123 113 107 111 115 113 110 103 102 101 96 90 86 87 90 91 91 92 92 89 85 80 68 67 73 78 76 69 69 68 69 68 61 55 58 60 58 55 41 26 32 51 53 55 57 57 54 54 56 52 54 54 54 52 51 57 58 62 60 57 59 48 42 41 38 33 39 38 37 35 31
258 249 242 258 271 261 276 173 168 138 158 159 141 131 123 117 114 112 112 105 105 109 109 109 106 100 96 96 96 96 98 99 98 96 91 87 82 77 72 65 60 64 70 72 72 68 61 60 59 62 58 60 60 53 53 39 35 57 57 61 57 51 51 53 55 58 48 45 40 33 40 41 45 52 47 47 38 43 51 43 31 34 34 31 32 33 32
261 247 248 241 236 192 195 157 153 133 140 140 143 130 126 117 109 109 106 104 103 107 109 110 106 104 101 100 98 94 90 93 96 99 100 99 92 83 75 65 60 65 66 65 65 62 54 63 68 63 62 53 46 55 52 26 45 54 56 55 58 50 46 34 38 43 49 55 57 52 51 52 51 48 38 32 36 34 24 27 36 37 33 31 27 25 22
276 266 270 230 212 146 163 160 149 143 147 144 133 125 118 113 116 109 105 104 105 103 101 101 101 100 100 98 93 89 86 79 76 79 92 99 90 81 76 70 61 56 57 62 61 68 53 40 42 60 62 54 39 13 47 43 44 51 46 40 40 46 50 42 40 42 42 48 49 44 47 55 53 45 37 38 37 39 45 41 38 32 29 21 20 18 20
238 209 194 173 131 146 147 143 133 137 133 117 110 114 110 109 106 105 106 107 105 102 100 98 100 102 102 99 96 92 87 84 80 73 64 60 66 83 81 74 60 55 42 65 68 60 64 64 56 51 54 58 60 22 19 48 48 48 46 46 47 47 52 51 54 57 60 56 48 47 48 47 46 46 42 39 36 23 15 12 10 8 4 3 359 2 359
184 196 184 164 146 137 143 154 149 137 123 115 108 106 107 108 105 104 102 101 101 101 100 101 100 98 96 96 93 88 87 88 85 81 77 72 68 66 69 69 61 50 40 63 60 68 61 60 55 53 43 46 51 40 43 53 56 56 59 60 56 56 57 56 57 55 48 49 54 50 33 23 21 23 16 10 0 7 6 2 360 2 1 356 359 359 358
187 187 174 156 143 136 143 141 131 121 110 102 102 104 103 101 102 100 100 100 99 99 100 98 94 89 84 81 82 83 84 85 89 91 90 85 76 70 66 69 71 62 49 66 68 69 66 64 63 61 56 50 57 60 63 67 65 63 59 54 53 51 46 44 39 36 34 33 30 29 27 21 16 19 18 16 5 10 12 2 7 6 5 4 6 8 8
166 162 146 135 138 141 136 123 109 104 102 105 105 100 100 97 92 90 92 92 89 86 84 82 81 81 80 78 79 80 77 66 57 83 102 90 86 81 76 81 76 78 72 71 74 72 73 69 53 47 51 47 44 49 62 59 58 52 47 46 41 37 40 37 30 33 31 28 25 28 30 22 28 21 13 26 24 8 12 352 8 3 4 4 11 7 7
136 137 121 117 120 117 106 101 102 105 97 95 90 85 83 85 84 85 86 86 84 84 83 83 85 87 92 92 90 86 83 81 74 64 71 82 85 87 85 86 90 86 84 81 84 82 74 58 46 40 35 35 60 68 63 59 56 54 49 47 43 38 30 31 22 26 26 24 20 13 7 0 9 20 16 1 16 3 22 358 350 8 6 356 0 3 359
68 76 78 78 64 70 92 105 105 103 103 101 97 93 92 93 95 94 90 86 84 83 82 85 86 85 81 88 96 99 98 95 91 92 96 95 92 91 83 74 70 67 69 72 70 70 71 74 56 38 48 51 56 65 64 63 58 56 49 42 37 31 27 25 15 19 15 33 5 356 28 355 349 359 11 7 16 13 358 353 356 353 344 349 340 352 1
74 78 92 96 104 99 81 67 73 80 91 98 101 103 104 102 97 96 97 96 94 90 88 85 83 82 82 82 82 86 92 101 101 94 86 91 95 98 95 93 100 106 96 89 85 76 61 51 36 15 54 74 73 68 65 58 56 53 52 48 40 37 30 25 19 20 16 25 3 3 355 8 2 6 356 353 353 359 353 338 338 344 342 337 342 358 354
79 78 74 71 86 85 78 75 79 83 86 97 102 104 107 106 100 93 92 97 97 93 90 86 83 82 80 75 78 83 82 78 84 94 94 96 98 102 103 105 105 101 93 90 92 94 68 41 30 27 64 67 69 67 63 62 57 58 53 47 49 42 37 36 27 18 22 22 19 18 8 11 12 6 352 360 356 355 354 348 347 6 359 334 343 355 355
66 74 65 57 58 70 82 87 92 98 108 111 111 113 111 110 106 104 106 103 100 101 99 97 98 99 96 96 91 92 92 93 94 95 96 93 93 91 89 83 80 78 87 99 102 103 112 108 71 60 63 73 69 64 63 60 61 53 53 56 54 59 51 45 60 39 26 29 26 24 19 18 23 10 348 7 13 355 359 355 351 34 254 287 358 349 360
73 79 72 68 71 82 87 94 108 115 115 114 114 112 108 104 106 110 108 111 114 110 107 106 100 97 97 97 98 96 98 97 95 99 100 97 96 96 95 99 98 95 100 106 97 97 92 82 77 96 85 66 62 58 53 58 69 69 57 52 47 41 58 53 42 47 37 23 27 30 15 12 16 7 3 11 5 4 358 357 354 351 359 359 358 355 353
79 88 92 93 98 103 107 107 106 103 103 106 110 112 111 112 112 111 111 110 108 107 110 112 108 105 104 104 105 106 104 106 111 107 110 114 115 113 121 133 130 132 117 95 89 85 81 94 80 35 341 38 78 96 131 206 50 74 79 70 73 76 52 31 44 43 43 32 25 37 37 22 9 11 14 11 7 2 359 1 357 355 357 354 354 347 340